This demonstration page uses our WeatherBlox Daily Observations layout. Learn more.

Left ArrowRight Arrow

34.02893, -84.19858

Hourly Observations for March 2, 2016

Temp ( °F °C ) Dew Point ( °F °C ) Humidity (%) Winds ( mph kmh ) Pressure ( in mb ) Visibility ( mi km ) Precip ( " mm )
12:53 am 00:53 Cloudy 51 10.6 47 8.3 86 86 W 7 11 29.94 1014 10 16 0.00 0.00
1:53 am 01:53 Partly Cloudy 49 9.4 45 7.2 86 86 W 12 19 29.95 1014 10 16 0.00 0.00
2:53 am 02:53 Clear 48 8.9 44 6.7 86 86 WNW 13 20 29.96 1014 10 16 0.00 0.00
3:43 am 03:43 Mostly Cloudy 47 8.3 43 6.1 86 86 WNW 9 15 29.97 1015 10 16 0.00 0.00
3:53 am 03:53 Mostly Cloudy 47 8.3 42 5.6 83 83 WNW 13 20 29.96 1015 10 16 0.00 0.00
4:11 am 04:11 Partly Cloudy 46 7.8 39 3.9 77 77 WNW 14 22 29.97 1015 10 16 0.00 0.00
4:35 am 04:35 Mostly Cloudy 44 6.7 38 3.3 79 79 WNW 13 20 30.00 1016 10 16 0.00 0.00
4:53 am 04:53 Partly Cloudy 43 6.1 37 2.8 80 80 WNW 15 24 29.99 1016 10 16 0.00 0.00
5:36 am 05:36 Mostly Cloudy 43 6 36 2 76 76 NW 13 20 30.03 1017 10 16 0.00 0.00
5:48 am 05:48 Partly Cloudy 41 5 36 2 81 81 NW 15 24 30.03 1017 10 16 0.00 0.00
5:53 am 05:53 Mostly Cloudy 41 5 35 1.7 79 79 NW 17 28 30.01 1016 10 16 0.00 0.00
6:53 am 06:53 Mostly Cloudy 38 3.3 33 0.6 83 83 NW 14 22 30.04 1017 10 16 0.00 0.00
7:53 am 07:53 Cloudy 38 3.3 32 0 79 79 NW 18 30 30.08 1019 10 16 0.00 0.00
8:53 am 08:53 Cloudy 39 3.9 31 -0.6 73 73 NW 16 26 30.13 1020 10 16 0.00 0.00
9:53 am 09:53 Mostly Cloudy 40 4.4 32 0 73 73 NW 17 28 30.13 1020 10 16 0.00 0.00
10:53 am 10:53 Partly Cloudy 42 5.6 32 0 68 68 NW 16 26 30.14 1021 10 16 0.00 0.00
11:53 am 11:53 Mostly Sunny 44 6.7 31 -0.6 60 60 W 14 22 30.15 1021 10 16 0.00 0.00
12:53 pm 12:53 Sunny 46 7.8 30 -1.1 54 54 NW 16 26 30.13 1020 10 16 0.00 0.00
1:53 pm 13:53 Sunny 48 8.9 29 -1.7 48 48 NW 17 28 30.12 1020 10 16 0.00 0.00
2:53 pm 14:53 Sunny 49 9.4 29 -1.7 46 46 W 16 26 30.13 1020 10 16 0.00 0.00
3:53 pm 15:53 Sunny 50 10 28 -2.2 43 43 NW 16 26 30.12 1020 10 16 0.00 0.00
4:53 pm 16:53 Sunny 50 10 28 -2.2 43 43 WNW 9 15 30.13 1020 10 16 0.00 0.00
5:53 pm 17:53 Sunny 49 9.4 28 -2.2 44 44 NW 8 13 30.15 1021 10 16 0.00 0.00
6:53 pm 18:53 Clear 45 7.2 27 -2.8 49 49 NNW 9 15 30.16 1022 10 16 0.00 0.00
7:53 pm 19:53 Clear 42 5.6 28 -2.2 58 58 N 5 7 30.17 1022 10 16 0.00 0.00
8:53 pm 20:53 Clear 42 5.6 28 -2.2 58 58 N 3 6 30.17 1022 10 16 0.00 0.00
9:53 pm 21:53 Clear 42 5.6 27 -2.8 55 55 NW 3 6 30.18 1022 10 16 0.00 0.00
10:53 pm 22:53 Clear 41 5 27 -2.8 57 57 NNE 5 7 30.16 1021 10 16 0.00 0.00
11:53 pm 23:53 Clear 40 4.4 28 -2.2 63 63 Calm 30.16 1021 10 16 0.00 0.00

Powered by AerisWeather